WetterOnline ( https://www.wetteronline.de )

Wetter aktuell Wälschbuch

Aktuelles Wetter: Weihenstephan-Dürnast (478m)

6-stündlich | Neueste Meldungen
Ortszeit Temperatur Wetter
Do, 29.02. 7:00 3.1° C bedeckt
Do, 29.02. 1:00 0.5° C bedeckt
Mi, 28.02. 19:00 5.1° C bedeckt
Mi, 28.02. 13:00 5.3° C bedeckt
Mi, 28.02. 7:00 2.0° C bedeckt
Mi, 28.02. 1:00 3.9° C bewölkt
Di, 27.02. 19:00 4.8° C bedeckt
Di, 27.02. 13:00 6.7° C wolkig
Ortszeit Temperatur Wetter
Do, 29.02. 9:30 4.5° C bedeckt
Do, 29.02. 9:20 4.5° C Dunst
Do, 29.02. 9:10 4.4° C Dunst
Do, 29.02. 9:00 4.0° C bedeckt
Do, 29.02. 8:50 4.0° C Dunst
Do, 29.02. 8:40 3.9° C Dunst
Do, 29.02. 8:30 3.7° C bedeckt
Do, 29.02. 8:00 3.4° C bedeckt
Do, 29.02. 7:30 3.0° C bedeckt
Do, 29.02. 7:00 3.1° C bedeckt
Do, 29.02. 6:30 3.1° C bedeckt
Ortszeit Relative Feuchte Sichtweite
Do, 29.02. 7:00 93% 6 km
Do, 29.02. 1:00 96% 3.3 km
Mi, 28.02. 19:00 86% 11 km
Mi, 28.02. 13:00 83% 11 km
Mi, 28.02. 7:00 97% 2.8 km
Mi, 28.02. 1:00 92% 10 km
Di, 27.02. 19:00 90% 20 km
Di, 27.02. 13:00 73% 28 km
Ortszeit Relative Feuchte Sichtweite
Do, 29.02. 9:30 90% 6 km
Do, 29.02. 9:20 90% -
Do, 29.02. 9:10 89% -
Do, 29.02. 9:00 91% 6 km
Do, 29.02. 8:50 91% -
Do, 29.02. 8:40 93% -
Do, 29.02. 8:30 94% 4.6 km
Do, 29.02. 8:00 92% 6 km
Do, 29.02. 7:30 94% 4.6 km
Do, 29.02. 7:00 93% 6 km
Do, 29.02. 6:30 93% 6 km
Ortszeit Niederschlagsmenge Niederschlagsart
Do, 29.02. 7:00 0.0 l/m2 in 12 Std. -
Do, 29.02. 1:00 0.0 l/m2 in 6 Std. -
Mi, 28.02. 19:00 0.0 l/m2 in 12 Std. -
Mi, 28.02. 13:00 0.0 l/m2 in 6 Std. -
Mi, 28.02. 7:00 0.0 l/m2 in 12 Std. -
Mi, 28.02. 1:00 0.0 l/m2 in 6 Std. -
Di, 27.02. 19:00 0.0 l/m2 in 12 Std. -
Di, 27.02. 13:00 0.0 l/m2 in 6 Std. -
Ortszeit Niederschlagsmenge Niederschlagsart
Do, 29.02. 9:30 0.0 l/m2 in 30 Min -
Do, 29.02. 9:20 keine Meldung -
Do, 29.02. 9:10 keine Meldung -
Do, 29.02. 9:00 0.0 l/m2 in 1 Std. -
Do, 29.02. 8:50 keine Meldung -
Do, 29.02. 8:40 keine Meldung -
Do, 29.02. 8:30 0.0 l/m2 in 30 Min -
Do, 29.02. 8:00 0.0 l/m2 in 1 Std. -
Do, 29.02. 7:30 0.0 l/m2 in 30 Min -
Do, 29.02. 7:00 0.0 l/m2 in 1 Std. -
Do, 29.02. 6:30 0.0 l/m2 in 30 Min -
Ortszeit Stärke Spitze Richtung
km/h Bft. km/h Grad Sektor
Do, 29.02. 7:00 4 1 7 90° O
Do, 29.02. 1:00 4 1 11 280° W
Mi, 28.02. 19:00 0 0 18 - -
Mi, 28.02. 13:00 7 2 20 320° NW
Mi, 28.02. 7:00 4 1 18 300° NW
Mi, 28.02. 1:00 7 2 14 320° NW
Di, 27.02. 19:00 2 1 17 270° W
Di, 27.02. 13:00 4 1 18 360° N
Ortszeit Stärke Spitze Richtung
km/h Bft. km/h Grad Sektor
Do, 29.02. 9:30 6 1 9 70° O
Do, 29.02. 9:20 6 1 - 70° O
Do, 29.02. 9:10 6 1 - 60° NO
Do, 29.02. 9:00 2 1 6 50° NO
Do, 29.02. 8:50 2 1 - 50° NO
Do, 29.02. 8:40 4 1 - 70° O
Do, 29.02. 8:30 2 1 4 60° NO
Do, 29.02. 8:00 0 0 7 - -
Do, 29.02. 7:30 4 1 7 60° NO
Do, 29.02. 7:00 4 1 7 90° O
Do, 29.02. 6:30 4 1 7 100° O
Ortszeit Untergrenze Bedeckung Gattung
total tief tief mittel hoch
Do, 29.02. 7:00 630 m 8/8 8/8 - - -
Do, 29.02. 1:00 840 m 8/8 8/8 - - -
Mi, 28.02. 19:00 660 m 8/8 8/8 - - -
Mi, 28.02. 13:00 300 m 8/8 8/8 - - -
Mi, 28.02. 7:00 630 m 8/8 8/8 - - -
Mi, 28.02. 1:00 2400 m 8/8 4/8 - - -
Di, 27.02. 19:00 4500 m 8/8 8/8 - - -
Di, 27.02. 13:00 1800 m 8/8 1/8 - - -
Ortszeit Bedeckungsgrad in Achtel und Wolkenuntergrenze
Do, 29.02. 9:30 8(600m)
Do, 29.02. 9:20 8(600m)
Do, 29.02. 9:10 8
Do, 29.02. 9:00 8(600m)
Do, 29.02. 8:50 8(600m)
Do, 29.02. 8:40 8
Do, 29.02. 8:30 8(600m)
Do, 29.02. 8:00 8(630m)
Do, 29.02. 7:30 8(630m)
Do, 29.02. 7:00 8(630m)
Do, 29.02. 6:30 8(660m)
Ortszeit Luftdruck NN (hPa) Tendenz (hPa in 3 Std.)
Do, 29.02. 7:00 1020 - 1,3
Do, 29.02. 1:00 1023 - 1,0
Mi, 28.02. 19:00 1023 + 0,6
Mi, 28.02. 13:00 1022 + 1,0
Mi, 28.02. 7:00 1020 + 1,8
Mi, 28.02. 1:00 1017 + 1,3
Di, 27.02. 19:00 1014 + 1,4
Di, 27.02. 13:00 1012 + 0,7
Ortszeit Luftdruck NN (hPa) Tendenz (hPa in 3 Std.)
Do, 29.02. 9:30 1019 - 0,6
Do, 29.02. 9:20 1019 keine Meldung
Do, 29.02. 9:10 1019 keine Meldung
Do, 29.02. 9:00 1019 - 0,7
Do, 29.02. 8:50 1019 keine Meldung
Do, 29.02. 8:40 1019 keine Meldung
Do, 29.02. 8:30 1019 - 0,7
Do, 29.02. 8:00 1020 - 0,8
Do, 29.02. 7:30 1020 - 1,0
Do, 29.02. 7:00 1020 - 1,3
Do, 29.02. 6:30 1020 - 1,5
Ortszeit Schneehöhe (cm)
Do, 29.02. 7:00 0
Do, 29.02. 1:00 0
Mi, 28.02. 19:00 0
Mi, 28.02. 13:00 0
Mi, 28.02. 7:00 0
Mi, 28.02. 1:00 0
Di, 27.02. 19:00 0
Di, 27.02. 13:00 0
Ortszeit Schneehöhe (cm)
Do, 29.02. 9:30 0
Do, 29.02. 9:20 0
Do, 29.02. 9:10 -
Do, 29.02. 9:00 0
Do, 29.02. 8:50 0
Do, 29.02. 8:40 -
Do, 29.02. 8:30 0
Do, 29.02. 8:00 0
Do, 29.02. 7:30 0
Do, 29.02. 7:00 0
Do, 29.02. 6:30 0
Link zu dieser Seite / Seite empfehlen

Das Wetter in ...